Wind_Speed
12 12 12 13 13 13 13 13 13 13 13 13 13 13 13 13 12 12 13 13 13 13 12 7 6 7 6 7 9 10 10 9 9 8 9 9 9 9 9 8 7 5 4 3 4 6 6 8 8 7 6 4 3 2 3 2 1 3 4 5 5 5 4 1 4 3 3 5 1 6 8 9 8 7 5 1 7 11 8 9 8 8 9 5 6 5 10 20
12 12 12 12 13 13 13 14 14 14 14 14 13 13 13 12 12 12 12 12 12 12 12 9 6 7 7 7 7 9 9 9 11 13 13 13 11 10 9 7 7 6 3 3 6 8 7 6 7 8 6 4 3 3 4 3 2 5 4 5 6 5 2 2 5 4 4 6 2 3 7 9 7 6 7 6 11 12 13 12 10 12 12 10 9 9 15 19
12 12 12 12 13 13 13 14 14 14 14 14 14 13 13 12 12 12 11 12 12 11 12 11 8 7 7 7 6 7 7 9 12 11 12 16 14 10 8 7 6 6 5 4 5 7 7 6 6 8 7 5 4 3 4 3 3 5 4 6 5 2 3 3 4 5 4 4 4 4 5 8 7 4 7 8 12 13 15 13 12 15 16 15 13 14 17 19
12 12 13 13 13 13 14 14 14 14 14 14 14 14 13 13 12 12 11 11 11 11 11 11 10 8 7 6 5 4 4 8 8 4 9 15 14 12 9 6 5 6 5 5 5 5 5 5 6 8 6 6 4 4 5 4 3 2 4 7 4 3 5 3 2 3 3 2 6 6 3 7 8 5 7 8 11 13 15 15 15 16 16 16 15 16 19 19
12 13 14 14 14 14 14 14 15 15 15 15 15 15 14 14 13 12 11 11 11 10 10 11 11 9 6 5 3 1 3 5 1 2 8 13 14 12 9 7 6 6 5 5 5 4 5 5 5 6 5 6 5 5 6 6 2 2 7 9 5 3 5 1 2 0 1 2 6 7 6 6 5 6 10 11 12 12 7 8 14 16 15 13 16 18 18 19
12 13 14 14 15 15 15 15 15 15 16 16 16 15 15 15 15 14 13 12 11 10 10 10 10 8 6 4 1 3 4 3 2 2 7 11 12 11 8 6 5 5 5 6 5 5 6 5 6 6 5 6 7 7 5 6 4 5 7 7 5 5 6 2 2 1 2 4 7 7 5 3 5 8 11 14 18 15 4 1 5 8 9 7 16 18 17 18
13 13 14 15 15 16 17 17 17 17 17 17 17 17 16 16 16 15 14 13 13 12 11 10 8 6 4 1 2 4 7 5 1 4 7 10 11 9 7 5 5 5 6 7 7 7 6 6 7 6 6 7 7 7 4 5 5 6 7 6 5 5 7 4 1 2 3 7 7 3 3 5 10 10 9 15 21 19 11 2 2 2 3 6 14 17 17 19
14 14 15 15 16 16 17 18 18 18 18 18 18 18 18 17 17 17 16 15 14 13 12 10 6 4 1 2 2 5 8 6 4 5 8 10 9 9 7 4 5 5 6 9 7 6 5 7 8 4 7 6 3 5 3 3 7 10 9 6 3 3 8 6 3 4 5 7 5 3 7 11 13 8 8 18 19 17 16 9 7 6 6 9 13 16 16 17
15 15 15 16 17 17 18 18 19 19 20 20 19 19 19 19 18 18 18 17 17 15 12 8 6 4 4 4 4 6 5 5 6 6 8 10 9 8 7 4 5 5 7 7 6 7 5 6 6 3 7 6 3 4 3 5 6 7 8 5 4 6 7 6 6 8 6 6 5 7 12 13 8 4 11 22 20 17 17 15 11 9 10 12 12 14 15 16
16 16 16 17 17 18 18 19 19 20 20 21 21 20 19 19 19 19 18 19 18 16 11 7 5 5 6 5 5 5 2 2 5 6 7 8 8 7 6 6 6 7 7 6 5 7 5 5 2 1 6 5 5 3 3 5 3 3 6 7 8 9 7 6 8 9 6 6 8 10 13 12 4 2 13 15 9 12 14 16 14 11 12 13 12 13 14 15
17 18 18 18 18 19 19 19 19 20 20 21 22 21 20 19 19 19 19 20 19 15 10 6 6 6 5 6 7 5 2 3 4 6 6 7 7 7 7 8 7 7 7 6 5 4 5 4 1 1 3 1 3 3 3 3 3 4 5 8 11 12 10 9 11 10 6 5 8 9 11 12 6 6 18 12 4 5 10 13 13 12 12 13 13 13 12 13
18 19 20 20 21 21 20 20 20 20 21 21 22 21 21 19 19 19 19 20 18 13 8 5 6 6 5 7 8 6 4 4 5 6 7 6 7 7 7 7 7 8 7 6 4 3 3 1 3 6 3 3 4 3 2 1 2 4 4 9 12 11 13 14 14 10 9 6 6 5 8 12 13 15 24 16 7 7 9 11 12 12 12 11 12 11 11 12
19 20 21 22 23 23 23 22 21 21 21 22 22 21 20 20 19 19 19 20 16 10 5 4 6 5 5 6 6 8 8 8 7 5 7 7 5 5 5 6 6 8 7 5 2 4 4 2 3 6 2 4 6 1 1 1 2 5 5 7 9 9 11 13 11 8 9 5 7 5 8 10 14 21 23 13 10 10 10 12 12 11 11 10 11 10 11 13
19 20 21 22 23 24 25 25 24 23 23 23 22 21 20 19 19 18 19 18 13 8 4 4 5 5 5 5 3 8 11 11 9 6 6 6 4 3 3 3 4 6 6 5 4 5 6 4 2 3 0 3 4 1 3 5 4 5 5 5 6 9 6 6 9 9 9 4 7 7 8 11 10 15 18 9 12 12 11 12 12 12 10 10 11 11 12 13
18 19 20 21 22 23 25 25 26 25 25 25 24 22 20 19 18 18 18 15 9 5 3 4 6 4 5 6 4 6 9 9 8 8 8 7 6 4 4 4 4 5 5 5 6 6 6 4 3 3 1 1 2 4 7 7 6 6 5 6 7 7 4 6 9 11 9 4 8 10 6 11 13 9 5 8 10 11 11 12 11 12 12 11 11 11 12 12
17 18 19 20 21 22 24 24 25 25 25 26 25 23 20 19 18 16 15 11 6 3 3 3 7 5 7 4 2 4 6 7 7 9 10 10 7 4 6 6 5 5 4 5 6 6 5 4 2 2 1 2 5 6 7 7 7 6 7 8 8 8 8 5 7 10 8 5 10 13 8 10 10 2 6 7 8 10 10 11 12 14 14 13 12 11 12 12
16 17 18 19 20 22 23 23 23 24 25 26 26 23 20 18 17 14 10 7 4 3 4 2 4 5 6 2 2 4 3 5 7 8 10 12 8 5 7 6 4 4 5 5 4 5 5 4 2 1 4 6 6 5 5 7 7 6 6 8 9 11 11 6 3 6 8 6 10 13 12 15 15 10 5 6 8 10 11 13 14 16 15 14 12 12 13 12
15 16 17 19 20 22 22 22 22 23 24 25 24 22 19 16 14 9 4 3 3 3 4 3 3 4 4 4 3 1 3 4 6 7 8 10 9 7 5 3 4 5 6 5 4 6 5 4 3 4 6 7 7 6 6 9 9 9 9 8 10 10 11 11 5 5 10 9 10 12 13 18 21 19 16 12 10 12 14 14 16 17 18 16 14 14 13 14
15 16 17 19 20 21 22 21 21 22 23 23 20 17 15 10 8 5 5 6 4 3 3 3 7 5 3 2 2 2 3 5 6 6 7 7 8 8 4 3 5 6 5 4 6 8 5 4 4 6 8 9 11 12 12 14 13 14 13 9 11 11 11 15 5 6 10 8 10 14 15 18 21 19 19 17 13 13 15 15 15 17 17 15 14 15 13 14
15 16 17 18 20 21 21 20 21 21 20 20 16 12 8 6 5 3 5 6 8 9 7 4 9 9 7 1 3 3 2 5 5 5 8 9 9 8 7 5 4 5 7 7 6 5 3 5 7 9 12 13 14 16 16 17 14 13 12 10 13 12 13 16 5 6 6 6 10 15 16 19 21 20 19 17 15 15 17 17 17 17 16 13 15 17 15 15
15 16 16 18 20 21 21 19 20 19 15 13 11 7 5 4 5 3 0 6 13 11 9 8 6 9 10 2 4 5 1 4 6 6 10 11 9 7 8 8 7 6 9 10 4 2 3 6 12 16 17 13 10 10 12 15 14 12 12 11 12 11 13 13 1 6 5 4 10 14 16 19 20 19 19 17 16 17 19 19 19 19 17 13 15 18 15 11
15 16 16 18 20 22 21 19 18 16 11 8 5 5 2 3 3 1 1 7 11 7 6 8 5 8 10 5 6 5 1 7 8 8 13 12 9 8 8 10 10 8 8 8 4 3 6 10 18 19 10 5 4 5 8 13 14 12 9 9 10 10 12 7 4 6 5 4 7 11 13 16 19 20 19 20 19 17 20 21 18 18 17 15 15 14 13 10
15 15 16 17 20 22 21 19 16 12 9 6 4 4 1 1 2 3 2 7 9 6 7 10 10 11 12 8 7 8 7 11 10 9 17 16 9 8 8 10 12 10 9 11 9 7 8 10 14 11 3 4 8 6 8 10 10 10 8 7 9 10 10 6 2 3 5 7 8 11 12 13 17 19 19 22 20 16 19 20 16 15 16 16 14 11 10 12
15 14 15 17 20 21 22 21 13 6 7 5 3 2 1 3 4 3 2 6 8 6 7 7 7 10 11 5 8 12 11 10 8 7 18 18 9 6 9 11 12 11 10 14 15 13 13 7 1 0 3 6 10 6 7 8 7 9 10 10 11 11 11 9 3 3 7 9 6 8 11 11 13 15 14 12 10 12 15 15 13 14 15 14 13 11 10 11
14 14 14 17 19 20 23 18 6 4 7 3 0 1 2 4 5 3 2 5 7 4 2 4 5 7 8 5 7 9 6 7 5 3 13 14 8 7 6 7 9 12 14 16 15 13 15 5 4 2 3 5 8 8 9 9 7 8 11 15 16 14 14 11 5 6 8 7 2 2 9 8 6 10 10 4 5 8 9 10 12 12 12 11 10 11 10 10
14 14 13 16 17 20 20 9 3 8 7 1 1 1 3 6 6 2 1 5 7 3 3 5 6 6 8 6 6 5 2 5 0 4 9 7 4 3 4 4 5 9 10 10 9 7 7 2 2 6 6 5 8 11 11 9 8 8 5 7 11 13 13 12 7 4 6 7 1 1 6 9 4 6 8 5 7 9 7 8 12 9 10 9 7 8 9 10
14 13 12 14 15 16 13 6 8 11 4 0 2 2 3 5 6 2 2 6 8 5 5 3 3 4 6 4 5 6 1 2 3 3 5 3 3 3 5 7 6 5 2 2 5 4 4 4 3 6 7 7 9 10 10 11 9 5 1 2 2 5 8 8 6 6 6 9 5 5 4 10 10 6 9 9 8 10 10 11 12 10 11 14 9 7 9 10
14 13 12 12 13 12 10 10 12 9 4 4 4 3 3 4 5 2 3 7 4 5 4 2 1 3 4 2 3 3 1 1 3 1 2 1 2 3 8 13 10 7 6 6 7 2 3 5 6 8 7 7 7 3 2 10 9 2 3 3 3 1 2 2 3 6 6 8 8 8 10 8 12 6 10 13 12 12 13 13 13 11 12 15 13 6 9 10
14 13 12 12 12 12 11 10 9 7 7 7 5 4 2 4 4 1 3 7 2 3 1 3 3 2 5 4 4 3 1 1 0 1 2 2 4 2 5 9 9 7 6 9 10 3 2 1 2 6 8 6 3 4 4 4 5 2 4 4 5 3 1 1 4 4 5 9 9 9 13 7 13 7 8 10 9 11 12 11 12 12 9 11 12 5 7 8
16 14 13 12 11 10 9 9 9 9 7 5 5 3 3 4 3 4 8 6 1 2 2 3 4 6 9 8 6 7 5 1 2 3 3 3 4 3 2 2 4 6 5 7 10 5 2 3 1 4 5 2 4 6 5 2 3 5 5 2 2 3 2 2 4 2 4 11 8 13 18 11 10 4 8 8 8 12 11 8 9 10 8 9 9 6 5 7
19 16 15 14 12 9 7 6 6 6 4 6 6 2 4 3 2 8 9 2 2 2 5 4 5 8 12 11 7 8 9 5 5 7 5 3 5 6 4 3 3 4 6 7 9 8 6 5 3 2 1 3 5 3 3 3 3 4 3 2 2 4 3 3 3 3 6 10 4 13 20 17 11 3 6 8 10 14 11 6 7 8 7 8 7 5 5 7
20 18 17 18 15 12 9 6 5 6 4 5 6 3 4 3 6 11 6 4 0 6 6 6 8 8 11 11 5 6 8 6 8 10 7 6 6 8 8 8 6 4 7 6 6 6 6 7 7 3 1 5 6 3 2 2 3 4 5 4 4 4 3 5 4 5 8 6 2 7 11 13 13 9 7 7 9 13 10 4 8 8 7 8 6 5 5 6
21 20 20 21 19 16 15 13 10 8 5 4 4 4 3 5 9 9 7 5 2 3 4 3 7 7 8 8 6 6 4 3 9 10 8 7 7 8 11 11 6 3 4 4 3 4 3 3 7 7 2 7 10 8 5 4 7 8 8 6 6 6 5 6 6 6 8 4 3 4 2 6 9 8 14 16 14 14 11 8 9 8 9 8 5 6 4 5
22 22 23 25 24 21 19 15 11 7 4 3 3 4 5 10 9 4 9 11 3 2 3 3 5 7 7 7 4 6 5 4 9 9 7 8 6 7 11 13 12 5 2 2 3 4 6 6 8 9 3 10 16 12 4 2 7 9 7 6 7 6 5 6 7 7 6 5 2 5 2 5 5 2 13 20 19 16 12 11 9 8 10 6 4 5 5 5
25 27 27 27 27 25 22 17 12 8 4 2 3 5 8 11 8 3 7 8 4 3 3 2 5 7 8 7 3 5 6 5 9 9 7 8 8 8 9 11 15 9 3 5 3 3 8 9 5 5 1 10 13 6 1 4 4 6 5 6 7 6 7 7 8 6 2 7 6 6 4 7 6 4 9 13 14 15 14 13 10 10 10 6 4 5 6 6
30 32 29 28 30 30 26 21 16 10 5 3 5 8 10 10 6 4 5 6 5 6 6 2 5 7 7 6 5 7 5 2 7 7 6 10 10 10 8 8 14 15 10 7 3 4 6 5 4 4 2 5 4 0 1 2 2 4 6 6 3 1 3 6 7 3 1 7 9 5 6 9 8 9 9 13 13 15 15 14 14 13 10 7 7 6 6 7
33 30 27 29 32 33 30 24 20 14 6 3 7 10 10 8 7 5 3 3 3 6 8 6 7 8 8 7 7 9 6 3 7 6 4 7 8 11 11 7 12 17 16 11 5 5 5 4 3 4 2 1 2 3 1 3 1 4 4 4 2 4 1 4 6 3 3 9 9 8 13 12 9 8 8 15 16 16 17 16 14 11 8 8 9 7 6 7
31 22 21 29 34 34 32 29 25 16 6 3 11 15 9 7 9 8 4 4 2 5 9 9 7 8 9 9 7 11 10 6 8 7 5 6 6 10 13 8 10 17 19 15 7 3 2 4 3 1 1 2 2 1 3 2 1 1 2 2 1 1 3 5 5 4 6 8 9 15 20 15 11 7 6 14 16 17 18 16 13 11 9 8 8 7 7 7
26 12 9 18 29 33 35 33 23 11 5 7 13 13 8 10 13 10 7 7 5 6 10 11 8 7 9 10 7 8 12 9 9 7 7 7 6 8 13 9 9 15 18 15 8 3 2 4 3 1 3 2 3 4 5 5 3 0 4 3 1 2 3 5 6 5 7 8 9 16 19 13 9 7 7 14 17 17 16 13 12 12 12 10 8 7 7 6
14 5 2 9 23 35 39 32 17 6 6 9 11 10 7 9 10 10 12 11 8 7 9 11 11 10 11 11 10 8 9 9 9 8 7 8 7 8 12 9 7 10 13 12 8 3 2 3 4 0 1 2 4 7 9 10 9 6 5 6 6 3 1 3 5 6 6 7 7 10 15 12 3 2 6 13 16 16 14 11 9 9 11 10 8 7 7 6
7 4 1 12 26 36 32 19 8 7 6 6 10 10 9 9 7 9 13 12 10 7 5 7 10 11 11 11 11 9 8 7 8 9 7 9 10 7 9 12 9 7 6 6 7 5 3 4 6 3 3 6 8 9 12 11 10 9 9 10 10 9 5 4 7 6 4 6 9 8 13 15 2 7 4 8 12 12 12 11 7 7 10 9 8 8 8 7
5 4 4 20 34 36 22 7 6 6 5 7 8 6 6 7 8 9 10 8 7 5 3 5 9 11 10 11 12 9 7 7 9 9 8 10 13 9 9 13 12 11 9 6 8 8 3 2 6 8 7 8 6 3 3 3 2 3 6 8 10 10 9 8 8 5 4 6 9 10 14 16 4 8 5 5 7 6 8 9 7 7 9 8 8 9 8 8
4 3 7 26 40 32 13 4 5 5 6 7 7 8 7 6 6 7 8 9 7 4 4 6 9 12 11 10 11 9 8 8 11 12 9 8 12 10 9 11 11 11 9 5 4 4 2 2 6 8 7 8 3 4 3 1 2 4 6 8 9 10 11 10 6 3 3 6 9 9 11 15 6 8 6 3 4 5 7 7 8 9 8 9 10 9 8 9
3 1 3 23 42 32 11 6 5 6 9 7 9 11 10 7 6 7 8 10 9 7 8 9 10 12 11 9 10 12 12 10 11 14 11 8 8 7 9 14 13 10 9 7 6 5 4 4 6 5 6 6 4 3 2 3 5 7 9 11 11 12 13 9 4 2 5 14 18 11 8 13 9 3 3 11 8 8 9 9 9 10 8 10 11 9 9 9
3 2 0 14 30 23 10 9 9 9 11 12 13 14 13 8 7 10 11 9 9 9 9 7 6 8 9 10 11 13 13 11 9 9 9 9 5 1 4 11 15 14 11 7 7 7 6 6 7 8 10 8 9 11 6 3 6 7 9 14 15 16 17 11 6 7 11 19 21 14 11 15 14 11 17 20 11 7 10 10 9 9 10 11 11 9 9 9
4 4 1 4 10 9 5 6 9 10 11 14 13 12 15 14 9 10 10 8 10 12 10 5 3 4 6 9 11 12 13 13 11 8 8 10 6 1 2 4 9 10 4 4 1 4 4 6 11 14 15 13 15 18 10 2 5 7 11 17 17 17 20 14 9 12 14 13 13 15 20 21 18 20 25 26 20 16 16 12 8 9 10 11 11 10 10 11
4 4 4 3 4 7 6 4 5 8 10 12 9 7 14 17 12 9 9 9 11 12 10 7 7 8 8 10 12 12 13 15 13 11 12 12 9 3 3 3 4 4 6 7 5 1 1 7 13 18 21 20 21 23 20 16 12 10 12 15 17 17 18 16 17 19 14 8 10 17 24 23 17 19 25 27 25 21 19 18 17 15 13 9 8 10 12 12
4 3 2 3 4 6 8 10 12 11 11 11 8 8 14 15 13 11 9 9 10 9 7 7 12 18 19 17 14 12 13 13 11 12 13 13 12 8 2 1 2 2 4 2 3 2 1 6 11 15 19 19 20 22 23 23 21 16 12 13 15 17 19 23 25 22 14 12 17 19 23 24 18 17 23 25 24 23 22 21 19 19 19 12 6 9 12 14
5 4 2 3 4 4 6 13 17 17 16 14 10 10 14 16 17 16 10 7 8 10 12 11 15 21 24 22 17 12 10 11 11 13 13 13 13 10 7 7 3 3 3 2 0 2 2 5 9 14 16 17 19 20 22 24 24 22 19 15 12 13 22 26 22 16 17 23 26 24 26 25 18 18 25 26 25 24 21 19 18 19 23 19 9 9 14 16
4 3 3 3 5 5 6 9 11 12 14 15 12 11 13 18 20 16 12 11 10 9 13 16 20 21 21 22 19 17 16 17 19 18 14 13 13 10 8 8 4 2 2 1 0 1 4 7 9 10 11 14 18 21 23 24 24 24 23 20 19 22 26 24 16 13 19 24 25 25 26 21 15 19 24 23 21 19 17 20 22 21 25 25 16 13 17 19
7 6 6 5 5 5 6 6 7 9 9 10 12 12 13 19 21 17 14 16 16 13 13 18 22 20 18 18 18 19 21 22 23 23 18 14 11 7 6 7 6 4 3 3 2 2 4 7 7 7 10 12 16 20 22 23 24 24 22 22 26 28 25 20 16 16 18 19 20 21 19 14 14 19 19 19 22 21 20 23 24 23 25 24 19 17 20 20
9 7 4 4 4 4 5 5 7 9 8 7 11 14 14 17 20 18 13 11 15 18 17 18 20 16 14 18 20 21 23 23 23 22 20 16 11 7 6 8 11 9 6 5 5 4 5 6 6 7 10 11 15 20 20 17 16 16 18 23 27 26 22 22 23 23 21 17 15 14 12 13 17 19 18 21 25 23 19 20 21 22 22 18 14 16 19 17
Wind_Direction
7 10 13 15 15 16 16 15 16 17 16 14 15 14 13 12 8 5 2 358 359 5 5 349 335 334 314 279 262 263 272 283 289 260 238 246 244 237 234 230 243 245 253 262 199 193 194 208 209 196 205 197 216 192 157 205 220 225 230 243 255 259 270 326 275 284 314 304 160 166 190 219 217 177 179 169 238 244 237 227 228 218 222 209 127 126 151 148
2 4 6 8 9 10 9 8 9 9 9 9 9 8 9 8 5 2 359 356 351 354 358 354 337 329 327 303 277 267 274 277 272 264 250 246 245 238 232 225 236 240 235 217 200 209 217 226 206 194 217 208 184 174 177 181 201 234 250 254 257 273 308 2 292 285 290 289 281 181 202 225 232 179 162 206 228 225 233 236 226 227 229 202 160 155 159 157
356 358 359 359 1 3 1 1 1 2 2 2 3 3 3 2 2 359 357 353 348 347 348 347 337 330 326 311 297 272 279 280 270 263 238 231 233 228 221 219 230 232 225 223 224 233 251 269 226 200 220 226 190 182 200 178 196 236 250 258 266 316 307 281 263 263 275 280 268 248 208 220 236 182 154 215 240 226 226 231 220 225 229 213 182 168 169 170
348 348 349 350 352 353 352 353 353 354 354 354 356 356 357 357 357 356 354 350 346 343 339 337 331 327 325 315 302 271 280 277 267 234 204 209 211 213 210 208 219 225 223 227 231 237 254 256 215 205 223 233 195 195 218 184 185 212 220 262 309 15 304 283 232 258 262 258 265 258 213 227 228 194 188 221 245 240 233 229 226 224 226 217 186 174 178 179
340 340 341 340 340 342 343 344 344 345 344 345 348 349 351 350 351 351 349 347 343 339 333 328 323 321 324 314 289 220 262 267 271 130 190 190 192 201 208 211 212 219 212 210 213 221 233 211 192 206 230 234 196 205 221 182 168 245 232 259 299 309 284 305 93 273 226 235 260 242 230 235 204 201 218 226 237 245 246 237 234 227 235 227 180 174 181 184
332 334 334 332 332 333 333 335 336 336 336 337 339 342 345 344 346 345 344 341 337 334 329 322 316 313 317 313 200 173 238 264 82 156 190 181 190 195 204 213 213 216 198 203 214 215 222 201 196 209 231 242 216 215 209 162 175 254 244 245 258 257 259 287 81 136 213 236 237 233 246 229 206 230 228 226 236 243 258 30 246 235 250 224 164 170 183 187
328 328 328 327 326 326 328 329 328 329 329 330 332 336 338 340 340 340 341 337 334 332 324 317 307 295 305 316 159 194 238 261 209 193 190 188 199 199 209 216 217 211 193 213 218 217 226 217 220 226 241 251 234 222 186 156 196 242 263 250 235 237 244 256 121 168 221 240 241 267 292 236 232 249 241 233 238 243 246 203 171 225 238 172 159 174 187 191
324 324 324 323 322 323 324 324 324 325 324 325 327 330 334 335 336 337 337 335 334 330 322 312 290 271 248 178 214 237 240 241 227 217 207 207 209 209 218 225 225 205 202 229 234 238 250 242 240 245 250 255 243 222 178 200 216 224 253 258 215 219 243 244 211 212 227 237 250 270 257 247 245 267 269 248 246 245 245 231 191 190 195 183 183 187 190 196
322 321 321 319 319 321 321 322 323 322 322 323 323 326 330 332 333 333 335 335 334 331 321 300 270 239 198 196 251 264 246 217 228 237 218 215 220 221 220 219 227 217 221 237 244 249 252 257 256 259 273 282 262 235 178 225 235 223 251 268 232 240 244 229 228 230 223 226 225 234 246 250 250 299 274 254 250 248 241 239 219 198 205 203 202 199 196 200
321 320 319 318 318 318 319 320 320 321 321 320 321 324 326 328 329 330 333 333 333 333 319 287 253 216 196 206 241 258 257 206 227 231 218 220 223 219 220 223 224 226 234 228 230 248 258 283 310 23 290 281 247 236 173 226 298 314 278 282 262 259 251 224 237 232 215 233 219 224 250 254 214 166 261 253 246 242 231 233 226 210 219 216 212 209 203 204
321 321 320 319 318 318 319 319 319 319 318 317 319 321 324 326 325 327 331 331 334 333 316 282 237 211 207 226 241 254 236 206 223 221 219 224 217 211 222 230 222 219 239 243 231 255 287 297 100 146 285 297 243 222 196 246 330 326 302 290 267 254 247 230 236 228 210 231 212 223 258 255 215 207 247 242 139 198 211 219 220 216 226 222 219 215 206 210
321 321 321 321 322 321 320 319 320 318 317 316 315 319 324 324 323 325 327 330 334 331 314 265 219 205 225 243 243 248 232 213 229 226 223 226 221 219 224 231 226 217 239 262 239 211 266 272 184 236 289 344 286 250 227 302 309 293 290 283 272 253 245 232 227 216 205 207 172 206 270 247 219 224 245 239 175 180 202 217 219 218 225 222 221 216 211 211
322 323 323 324 325 324 322 321 320 319 318 315 314 318 321 322 323 323 325 328 332 330 306 237 211 200 232 256 237 233 237 234 239 232 224 223 216 220 224 228 227 219 231 257 240 180 196 163 229 263 311 286 281 335 303 213 241 277 252 261 277 271 255 224 207 187 189 191 145 183 273 255 216 222 241 234 179 187 207 222 226 224 223 220 219 215 214 211
323 324 325 326 325 324 323 322 322 322 320 316 314 316 318 320 320 321 323 325 328 319 280 221 200 185 230 261 239 235 239 239 237 225 222 211 184 185 190 197 211 211 215 217 195 178 176 161 233 261 100 271 294 15 258 229 209 254 249 240 252 266 265 181 168 167 179 177 153 187 259 272 255 237 234 204 171 192 215 224 228 229 221 215 216 214 216 212
323 325 326 327 326 325 324 324 326 325 321 316 314 316 318 317 316 319 318 318 320 299 248 204 190 186 261 259 242 249 239 235 227 213 215 191 174 178 159 155 153 164 171 171 169 158 158 169 217 239 156 137 271 261 265 254 224 226 247 256 240 242 244 179 173 184 191 162 173 194 240 265 277 276 205 158 172 200 223 233 231 236 229 215 213 213 217 215
324 326 327 328 328 327 326 328 328 325 320 314 311 315 317 315 313 313 310 309 302 248 188 196 191 206 285 268 210 255 233 225 214 212 215 192 188 190 152 144 131 134 137 141 147 144 160 190 229 279 250 211 237 250 266 270 253 224 226 260 260 252 257 220 175 196 203 144 179 208 248 268 271 282 119 139 185 204 228 241 239 245 241 223 215 211 215 215
324 326 328 329 329 329 330 332 331 325 319 313 312 314 315 315 307 303 299 281 262 194 183 240 186 206 264 241 239 262 204 201 198 202 210 197 193 179 156 156 148 137 130 135 151 163 186 200 195 245 231 230 239 242 257 264 263 247 227 250 262 263 268 253 190 198 196 182 206 216 236 258 262 262 239 193 191 207 232 244 247 254 251 237 224 212 213 212
321 324 326 327 329 330 331 333 332 325 319 316 316 316 316 311 295 290 273 209 157 149 207 246 197 220 239 202 238 274 114 168 184 185 198 197 191 178 181 191 162 159 161 170 191 190 197 200 204 251 240 227 224 217 231 241 254 278 274 266 273 272 266 263 262 167 176 200 230 226 232 251 260 265 264 249 220 220 235 246 252 255 253 248 236 224 217 210
317 320 324 326 328 329 331 333 328 325 324 322 323 322 316 304 279 251 195 176 163 205 250 181 188 243 291 185 185 89 103 144 164 176 180 183 177 173 198 197 169 190 201 199 192 188 195 204 214 248 241 225 218 212 222 239 255 281 285 281 282 283 271 270 276 146 179 206 228 234 243 254 261 263 265 265 254 243 244 248 252 254 254 250 242 236 225 217
313 317 322 326 327 329 333 330 323 326 329 330 339 337 308 278 268 239 189 198 222 246 281 220 206 256 284 251 131 138 152 163 173 182 173 168 161 172 195 187 183 214 225 222 196 176 191 222 227 236 238 234 232 228 233 248 263 277 278 277 274 273 272 272 266 144 187 223 239 246 251 257 263 265 266 269 267 264 261 256 253 253 253 247 242 240 229 225
308 312 319 326 327 331 334 328 322 327 332 338 347 330 297 293 287 289 242 242 236 235 260 253 238 269 272 275 152 166 171 216 203 178 173 170 160 177 190 183 201 220 221 221 194 118 184 222 235 239 247 252 256 255 250 255 263 267 266 271 272 265 267 272 215 140 181 217 253 260 262 262 264 266 268 268 264 262 263 261 258 258 259 251 244 241 232 225
304 307 317 324 326 330 334 329 323 327 337 348 332 294 325 359 289 279 355 276 251 217 240 255 252 267 260 245 213 190 239 249 226 180 171 173 178 197 189 181 213 224 198 195 181 183 209 229 243 245 253 269 280 280 264 261 261 263 259 259 264 263 268 270 117 134 180 204 264 270 271 270 268 267 265 261 256 253 256 259 260 265 266 258 248 244 233 214
299 305 315 322 324 329 334 330 324 330 341 347 323 302 342 56 134 124 184 275 273 214 213 235 231 244 244 230 207 190 221 241 237 198 172 172 188 211 209 199 222 231 193 195 209 212 219 234 248 249 226 246 258 246 247 259 254 245 243 247 253 255 266 266 151 152 197 215 271 286 279 271 267 262 255 251 249 246 251 257 260 263 262 259 255 250 234 212
296 302 313 321 320 325 334 330 324 327 329 337 334 306 230 164 129 111 228 270 268 218 204 228 230 241 238 220 181 190 221 233 234 203 170 173 182 190 221 221 227 238 220 218 220 223 237 236 211 138 156 236 254 232 219 243 248 232 225 235 248 251 258 265 304 339 252 234 250 289 283 265 253 246 239 240 240 238 246 254 261 260 254 251 251 246 232 216
292 294 308 317 314 323 331 327 324 330 321 333 341 259 180 163 136 96 307 269 251 220 193 211 200 227 217 171 165 184 233 232 220 161 165 185 193 168 209 224 227 241 234 232 231 237 247 228 97 227 208 209 240 240 224 226 251 243 222 228 244 258 265 269 321 353 296 265 181 298 295 277 230 224 224 172 160 217 228 239 250 259 260 243 230 231 221 209
286 286 301 308 308 322 329 322 332 327 314 234 263 268 163 168 152 121 320 270 250 195 137 188 181 194 183 154 156 150 289 251 194 95 164 204 242 197 226 204 209 251 247 240 243 247 246 149 101 239 232 217 235 251 238 220 245 254 232 236 246 259 267 271 293 307 283 283 220 91 310 293 256 216 222 169 165 204 205 225 235 244 264 252 213 201 202 199
279 279 288 296 304 323 331 323 323 319 299 221 316 249 190 180 179 205 283 276 259 169 135 190 190 168 157 144 159 154 227 253 81 99 170 213 236 219 243 208 195 240 230 240 254 233 190 172 176 210 223 231 233 252 237 210 230 255 21 5 258 254 262 262 273 257 263 293 275 176 208 278 276 232 209 201 205 223 230 243 245 234 243 253 242 180 182 195
273 272 277 284 292 311 316 305 311 315 302 324 322 250 220 191 202 239 271 270 262 126 126 182 140 104 110 129 194 171 321 159 135 134 98 325 229 197 228 227 234 233 184 194 235 229 148 187 194 185 202 228 224 274 233 199 221 269 57 40 62 59 271 230 245 257 273 295 275 189 171 247 277 249 195 208 219 227 232 240 250 246 230 244 257 209 172 189
266 268 269 270 279 295 304 296 288 286 295 312 307 267 219 195 215 249 252 254 213 119 136 134 141 144 125 143 205 209 33 94 171 83 116 204 234 236 240 240 258 256 201 213 243 283 77 177 211 188 204 226 190 47 21 218 220 140 109 86 78 88 92 145 241 273 282 274 260 187 165 219 278 263 182 198 212 214 224 228 237 247 230 230 254 238 164 176
255 260 261 257 265 281 293 285 265 268 291 306 299 281 197 200 222 231 233 244 260 119 117 133 166 160 148 160 202 209 207 193 103 136 173 180 196 228 268 257 262 263 238 239 259 266 128 92 0 220 219 205 101 74 29 24 117 139 147 121 119 190 182 199 237 261 271 266 245 179 175 206 270 263 157 176 202 200 200 205 224 239 225 215 240 239 171 168
250 250 249 243 240 249 271 277 258 265 295 312 307 266 213 216 214 236 233 253 330 170 138 175 177 151 169 186 196 190 197 207 149 158 188 168 176 202 210 195 200 242 247 241 251 238 186 172 200 208 169 124 116 104 63 70 141 168 176 195 231 225 200 214 210 167 241 264 220 169 182 201 232 231 154 178 198 196 183 186 242 248 229 216 217 207 171 166
250 245 242 240 233 231 242 247 256 275 297 319 312 246 222 219 218 235 224 78 265 191 156 177 180 176 195 205 208 174 182 205 180 181 197 180 187 198 201 202 176 200 240 222 224 223 203 203 187 134 103 181 174 161 113 125 183 202 194 193 238 247 228 232 216 192 232 254 115 156 186 211 234 243 223 208 196 198 194 211 256 257 247 234 196 157 151 160
248 244 240 239 233 226 232 244 254 264 286 314 287 233 215 239 236 222 186 164 209 169 122 132 168 181 193 203 210 174 173 205 176 187 204 188 205 212 209 217 207 239 259 211 215 217 220 220 167 160 209 191 188 199 207 191 184 193 191 182 206 233 249 252 245 240 244 242 128 137 187 242 258 246 222 225 217 204 207 224 236 239 241 233 170 136 146 160
246 242 237 235 233 229 231 239 237 232 260 294 255 206 203 240 242 177 181 201 200 99 97 96 149 173 197 214 196 166 201 218 166 178 198 186 210 223 213 219 218 236 274 231 259 227 248 271 176 170 173 169 188 211 223 133 172 192 194 196 216 230 243 250 259 262 272 298 230 163 183 248 275 220 196 214 222 210 212 223 216 224 231 215 134 141 163 171
249 242 237 231 227 226 225 225 219 210 217 212 209 198 209 234 236 196 206 200 167 146 124 99 157 175 214 224 196 196 222 216 171 175 197 197 209 213 205 206 202 200 192 218 247 194 242 262 163 131 92 166 183 210 129 107 175 190 179 209 233 235 228 246 282 286 317 315 271 186 215 246 261 259 187 195 214 206 210 219 213 226 224 190 166 190 181 177
246 241 235 225 220 219 214 211 207 202 202 200 204 207 219 237 232 210 209 182 179 165 135 169 196 193 224 209 190 213 219 205 183 183 207 213 224 223 206 193 188 188 185 191 212 195 235 263 125 98 317 173 168 324 164 208 210 164 175 206 224 0 234 243 277 300 117 281 269 217 246 258 266 261 190 172 200 202 204 210 211 225 220 196 212 209 181 180
234 233 228 222 219 214 207 202 193 186 189 210 217 221 229 239 228 218 197 158 190 161 156 215 208 192 221 218 202 193 176 187 185 186 213 203 223 216 197 199 185 186 196 198 215 231 239 269 172 165 231 151 17 352 298 303 333 143 190 206 100 50 331 242 262 282 247 266 272 262 267 270 274 270 176 173 198 199 200 207 209 219 213 209 225 216 193 186
229 225 228 227 216 206 202 196 180 167 153 194 230 238 243 239 232 229 184 129 154 177 192 226 208 189 213 230 220 173 166 192 174 180 219 203 218 191 175 196 186 186 205 206 219 263 236 259 231 149 21 81 72 266 223 238 180 137 282 284 88 221 204 197 220 248 249 257 271 275 278 273 260 259 179 181 195 194 198 205 210 215 210 212 224 222 208 184
232 228 248 227 209 203 198 186 169 153 156 191 222 236 240 246 249 243 202 179 193 199 213 231 223 216 224 234 239 173 170 191 171 177 214 205 218 178 161 181 187 194 206 197 207 242 172 233 238 46 359 87 137 215 203 181 159 300 290 266 236 257 223 199 203 220 238 247 270 282 284 276 251 238 191 179 187 196 202 203 206 211 212 214 217 221 214 187
229 234 290 196 197 199 189 175 160 159 185 199 222 236 245 257 256 243 226 216 217 216 230 239 231 234 237 235 243 216 193 203 190 199 212 194 213 197 168 170 173 196 204 190 202 218 124 229 238 160 318 229 202 198 192 190 179 183 226 219 200 204 277 276 236 226 234 242 254 270 276 274 264 140 181 179 183 197 200 196 199 202 210 216 210 212 215 202
205 243 233 169 183 183 172 162 166 178 189 223 235 242 254 268 275 253 239 233 236 236 251 256 241 243 247 240 240 227 212 223 212 216 223 205 220 221 175 178 172 149 155 181 209 208 168 213 227 211 204 224 221 200 195 198 184 182 195 199 198 189 184 235 239 224 214 235 240 243 263 270 263 99 151 179 177 196 197 185 186 197 205 210 205 210 215 211
215 257 162 163 174 169 159 170 201 185 205 223 230 257 264 260 269 260 242 234 248 256 268 265 250 249 250 247 249 234 208 222 222 220 229 221 227 223 176 181 175 146 145 183 204 199 175 168 223 231 230 236 231 179 184 208 178 225 221 205 204 192 187 211 223 214 192 222 242 241 253 266 260 106 118 157 156 199 211 180 181 209 207 204 207 208 210 214
227 245 154 167 172 166 163 211 198 201 233 240 265 283 272 261 265 258 238 227 229 230 230 241 243 243 243 243 249 241 222 225 226 226 232 231 232 226 186 174 166 160 176 196 185 169 123 142 223 239 255 261 246 99 79 86 149 247 245 221 216 209 210 220 227 239 213 209 229 235 241 261 267 110 119 224 201 218 229 198 207 229 216 214 218 206 205 214
226 248 147 176 175 169 179 219 200 218 233 256 276 262 256 266 259 248 240 226 217 217 228 235 237 238 238 239 244 239 234 235 233 233 237 239 238 225 195 179 168 179 201 193 173 170 172 194 211 232 251 261 252 201 187 174 189 219 227 217 219 220 222 235 253 269 246 232 234 239 243 253 258 127 207 259 234 192 212 214 219 230 217 215 218 205 206 214
251 235 85 191 185 180 195 206 204 215 217 229 243 243 249 256 241 238 241 238 234 236 243 249 256 252 241 238 244 240 237 241 243 240 241 245 251 272 212 194 183 198 216 206 184 179 186 194 191 214 231 228 232 236 227 158 181 212 224 217 216 215 215 223 232 225 237 239 235 240 251 254 263 276 272 268 253 214 224 220 205 215 220 222 222 209 204 209
264 233 175 198 207 219 238 209 204 209 209 218 227 233 238 241 243 235 229 237 240 237 249 275 317 302 254 238 249 252 246 245 248 251 252 252 253 12 344 242 211 219 259 338 280 176 188 211 201 215 230 228 235 245 249 208 177 187 209 216 213 210 210 214 225 227 235 244 237 236 247 255 262 268 271 272 270 266 265 260 242 231 227 223 222 216 209 211
263 245 185 172 220 234 249 259 227 208 205 210 206 207 221 229 240 230 206 215 225 222 237 253 247 251 246 235 244 251 247 246 247 248 253 257 255 256 23 353 278 300 13 4 333 30 223 238 223 228 237 238 246 255 258 259 242 209 198 208 211 211 210 212 224 230 232 248 247 238 244 253 255 254 264 272 272 272 273 273 272 270 260 236 210 213 220 222
255 262 195 204 226 214 219 231 228 221 213 207 204 219 225 224 227 224 208 214 220 205 204 228 227 228 233 234 234 240 242 244 246 242 244 250 251 253 272 228 232 34 57 7 346 53 228 253 246 250 254 253 257 262 263 266 264 250 229 215 210 208 209 217 227 230 227 239 248 246 248 254 255 252 258 263 267 271 273 273 275 276 277 271 217 203 225 231
261 275 283 265 253 234 227 227 224 222 218 215 214 220 226 228 226 224 215 208 216 202 199 220 226 221 227 231 232 236 234 233 240 238 233 237 240 245 250 239 229 69 98 212 290 119 219 254 251 258 266 265 264 265 264 265 268 267 261 252 241 229 225 228 231 229 227 238 247 251 254 257 260 259 258 259 266 272 276 279 279 277 280 280 251 216 239 248
271 295 311 303 290 291 284 256 242 236 226 223 225 217 221 231 231 228 220 210 216 205 198 219 231 226 225 226 228 234 230 227 238 240 230 226 229 231 232 226 217 74 107 180 264 204 222 232 239 254 267 261 258 261 262 262 265 267 269 273 271 260 250 246 241 229 232 241 247 251 256 260 260 258 259 264 269 270 272 276 279 277 277 276 267 256 262 267
282 319 331 315 298 280 267 254 244 248 238 222 227 228 229 233 232 235 235 223 222 220 206 217 229 233 234 231 228 235 235 232 239 242 238 231 223 221 230 210 181 161 151 176 197 189 214 233 239 247 255 251 248 251 253 255 259 261 263 263 257 254 256 256 248 239 239 247 253 253 254 255 251 255 262 267 266 265 266 269 272 272 272 275 277 273 269 269
274 307 323 302 292 266 259 257 236 241 244 225 228 233 237 241 237 238 246 236 225 228 226 225 229 233 239 236 232 236 239 238 241 244 245 246 236 215 209 191 173 171 175 193 205 189 194 220 228 228 244 249 243 246 251 254 257 252 243 242 244 248 254 255 253 251 247 244 249 248 242 242 251 259 266 265 262 260 260 261 263 267 272 277 277 269 266 270
Height
832 832 831 830 829 828 827 826 826 824 824 823 822 821 820 820 819 818 817 815 815 814 813 812 811 811 810 810 810 810 810 810 809 808 807 804 803 804 803 803 803 803 803 802 803 803 803 803 803 804 804 804 804 803 805 804 804 807 807 810 808 801 797 794 793 793 794 793 793 796 795 796 797 799 800 800 802 800 800 799 798 797 797 800 802 804 805 807
832 832 831 830 829 828 827 826 826 824 824 823 822 821 820 819 818 818 817 815 815 813 813 812 811 811 810 810 809 809 810 809 808 805 803 802 803 803 802 803 803 802 802 803 803 802 802 801 800 802 804 804 803 804 806 804 806 807 804 807 803 794 790 789 789 789 791 792 792 793 794 795 794 795 799 801 800 799 800 798 797 798 797 798 801 803 805 806
832 832 831 830 829 828 827 826 825 825 823 823 822 821 820 819 818 817 816 815 814 813 812 811 811 810 810 809 808 809 809 808 807 802 799 800 801 801 802 802 802 802 802 802 802 801 801 799 799 800 803 803 802 803 806 805 805 803 804 807 798 789 788 786 788 789 790 791 792 793 793 795 793 792 798 800 797 795 796 794 794 796 793 793 797 800 803 805
832 832 831 830 829 828 827 826 825 824 823 823 822 821 820 819 818 817 816 815 814 813 812 811 810 809 809 808 808 808 807 809 805 797 796 798 799 800 801 801 801 802 801 801 801 801 800 799 799 799 803 804 801 802 804 803 803 802 803 803 792 790 792 787 787 789 790 792 793 792 794 796 792 792 796 797 797 792 787 785 786 787 786 786 791 797 799 802
833 832 831 830 829 828 827 826 825 824 823 822 821 820 819 818 817 816 815 814 813 812 811 810 809 809 809 807 808 807 809 813 802 794 796 797 798 799 800 801 801 801 800 801 801 801 800 799 798 800 804 803 801 804 801 798 801 802 798 793 789 791 794 789 788 791 792 794 794 793 795 793 790 793 794 794 795 786 778 777 776 777 779 779 785 792 796 798
832 831 831 829 828 828 826 826 825 824 823 822 821 820 819 818 817 816 815 813 812 812 810 810 809 808 808 807 808 807 811 811 798 794 797 796 798 799 799 800 800 800 800 801 800 800 799 798 800 803 803 800 800 801 797 795 800 802 793 788 789 790 792 789 790 795 795 795 795 793 792 790 792 793 789 790 786 776 773 774 773 774 774 775 780 788 792 794
832 831 830 829 828 827 826 825 824 823 822 821 820 819 819 817 816 815 814 813 812 811 810 809 808 808 807 807 807 807 808 803 794 795 797 796 798 798 799 799 799 800 800 800 800 799 798 799 800 800 801 800 798 796 796 796 799 802 796 789 789 790 791 789 791 796 795 795 793 792 792 792 794 790 785 783 776 771 772 772 774 775 775 777 780 784 787 788
831 830 829 828 827 826 826 824 823 823 822 821 820 819 818 817 816 814 813 812 811 810 809 808 807 807 807 807 807 807 805 798 793 795 795 796 797 797 798 798 799 799 799 799 798 797 797 798 798 798 800 799 795 795 797 798 799 800 796 788 789 791 789 788 791 794 794 794 792 794 795 791 788 787 784 778 771 770 770 770 773 775 776 778 779 781 784 785
830 830 829 828 827 826 825 824 823 822 820 820 819 818 817 816 815 813 812 811 810 809 808 807 807 806 807 806 807 808 801 793 793 794 795 795 796 796 798 797 798 799 799 799 797 797 797 797 796 796 799 797 794 795 797 801 798 794 792 788 790 790 787 788 790 791 792 792 793 795 794 789 785 788 783 770 767 767 767 769 770 773 775 776 777 778 780 782
829 828 828 827 826 825 824 823 822 820 820 818 817 817 816 815 814 812 811 810 809 808 806 806 806 806 807 805 808 808 796 791 794 793 794 795 795 796 797 797 798 798 798 797 797 796 796 796 794 795 798 796 795 796 797 800 797 792 792 790 790 789 786 788 789 788 790 790 791 793 792 786 785 792 780 762 761 762 763 767 767 771 774 773 774 775 776 778
828 827 826 825 825 824 823 822 821 820 819 817 816 815 814 814 812 811 810 809 808 807 806 805 805 806 806 805 807 804 793 792 793 792 794 794 794 795 795 796 797 797 797 796 796 796 795 795 794 796 798 796 795 797 796 796 795 794 796 794 790 788 786 787 787 786 789 789 787 789 791 785 787 791 774 758 762 762 762 766 766 769 771 770 772 772 774 774
827 826 825 824 824 823 822 821 820 819 817 816 815 814 813 812 811 810 809 808 807 806 805 804 805 805 805 805 803 796 791 793 793 792 794 793 794 794 794 796 795 796 796 795 796 795 796 795 795 797 798 797 796 797 797 795 796 797 798 797 789 784 785 782 782 783 786 786 784 788 792 784 783 779 760 755 761 762 764 765 765 767 767 768 769 769 771 771
826 825 824 823 822 821 820 819 818 818 816 815 814 813 812 810 810 809 807 807 806 805 804 804 804 804 806 804 795 792 792 792 792 792 793 793 794 794 794 795 794 795 796 795 795 795 796 796 796 796 796 797 797 797 798 796 798 798 796 797 792 787 781 772 775 782 785 785 782 789 790 772 765 763 751 751 758 761 765 764 763 764 764 765 765 766 767 767
825 824 823 822 820 819 818 817 817 816 814 813 812 812 811 809 809 807 806 806 804 804 804 804 805 805 806 799 790 791 791 791 792 792 792 793 793 794 794 794 794 795 794 795 795 795 796 795 797 796 796 798 797 797 798 796 798 796 794 795 795 793 781 769 775 782 785 786 780 789 792 767 753 752 746 748 754 759 762 761 760 760 760 762 762 763 763 763
824 822 821 820 819 818 817 816 815 814 813 811 810 810 809 808 807 806 805 804 804 804 803 804 804 804 804 796 789 790 790 790 791 791 792 793 793 794 794 794 794 794 794 795 794 795 796 796 797 797 797 798 799 800 798 794 791 791 798 796 787 789 782 772 777 777 778 783 782 787 789 768 752 747 743 747 753 757 759 757 756 755 756 758 758 759 759 759
823 822 820 819 818 816 815 814 813 812 811 809 808 808 807 806 805 804 804 803 803 803 803 804 803 804 804 795 789 790 789 790 789 790 791 792 793 793 793 794 794 794 794 794 794 795 795 796 798 798 798 799 799 800 798 796 791 787 796 796 784 783 778 771 776 775 772 780 783 783 779 764 752 748 747 751 752 755 757 754 753 751 750 751 753 753 754 754
822 821 819 818 817 815 814 813 812 810 808 806 806 805 805 805 803 803 802 802 802 802 803 803 802 804 800 791 790 789 787 788 788 789 790 791 792 792 794 794 794 795 794 795 796 795 795 796 799 798 796 797 795 796 805 808 797 784 785 788 781 777 774 772 775 775 774 778 779 780 778 766 753 748 749 751 752 753 754 751 750 747 745 745 747 747 747 748
821 820 818 817 816 814 813 812 810 808 806 805 804 803 803 803 801 801 801 801 801 802 804 802 803 808 800 789 789 787 785 787 788 789 790 791 792 793 794 793 794 794 794 796 795 795 796 795 797 798 795 795 793 796 807 803 789 781 779 781 777 772 772 769 768 772 775 779 778 777 776 766 754 749 747 747 748 750 748 747 745 742 740 739 740 740 740 741
821 819 818 816 815 814 812 811 809 807 805 803 802 802 801 800 800 799 800 800 800 801 801 799 799 802 796 787 785 786 786 787 788 789 790 790 791 793 793 793 793 794 795 797 795 793 795 796 800 802 795 789 787 788 791 783 776 777 775 779 780 776 773 763 764 772 772 777 779 774 770 761 752 749 744 742 742 744 743 742 740 736 734 734 734 734 734 735
821 819 818 816 814 813 811 810 808 806 804 802 801 801 800 800 800 798 797 798 795 791 791 790 789 789 786 784 785 787 787 787 788 788 789 790 791 792 792 793 794 795 796 795 794 791 793 800 800 794 784 778 777 775 774 772 771 775 777 780 780 780 775 760 764 775 771 775 774 764 764 757 749 745 741 739 739 739 739 737 735 731 730 731 729 728 728 729
821 819 817 816 814 812 811 809 807 806 805 803 802 802 800 800 802 800 798 794 787 785 785 784 785 785 783 783 784 785 786 787 786 787 789 789 790 792 790 791 796 797 792 789 793 793 796 802 792 777 771 769 770 769 770 772 773 776 780 782 780 778 771 758 766 777 774 778 773 761 761 755 746 743 738 737 738 737 734 731 729 725 725 725 723 722 723 725
821 819 817 816 814 812 811 809 807 805 804 804 803 802 801 802 804 803 803 796 785 783 785 784 785 784 781 782 783 784 787 786 784 784 786 788 789 790 786 788 792 790 786 788 794 798 801 796 778 767 768 770 772 773 774 775 777 779 780 785 784 774 766 761 771 779 777 780 773 761 763 755 744 740 736 734 734 732 727 723 723 721 720 719 717 717 719 723
820 818 818 816 813 813 810 808 807 805 804 804 804 803 803 804 803 804 805 801 789 782 782 782 782 782 780 780 780 783 786 783 781 780 781 785 787 787 784 785 786 783 784 788 790 796 796 784 770 766 770 773 774 776 779 780 780 780 781 786 782 771 769 769 773 780 778 777 772 767 767 757 743 737 732 726 724 725 722 718 718 718 716 714 712 713 716 719
819 818 818 815 814 813 810 808 806 805 805 804 804 804 803 804 804 804 803 797 787 779 778 777 778 777 775 776 776 779 781 776 775 775 776 780 782 784 782 781 782 781 780 780 781 785 780 772 770 772 773 775 776 778 783 784 780 777 779 781 775 768 768 767 769 775 771 769 773 774 766 748 733 729 723 718 720 721 719 718 717 714 710 710 710 711 712 714
818 818 816 816 815 812 811 808 805 806 805 803 805 803 803 804 803 805 803 796 786 778 777 775 775 773 769 772 774 775 776 773 771 773 774 776 777 780 780 777 779 779 775 774 778 778 771 769 774 776 777 779 779 779 779 781 779 775 772 769 767 765 765 766 771 778 775 770 773 775 766 736 714 717 717 715 723 723 720 721 717 711 705 705 707 707 709 712
817 817 816 816 814 812 811 807 806 807 804 804 805 802 804 804 803 805 802 798 787 776 775 773 770 768 766 770 773 774 778 774 771 773 775 776 775 776 779 776 776 777 772 770 774 773 769 773 777 777 779 781 783 780 773 775 780 777 771 767 767 768 769 772 775 782 781 771 768 774 775 748 717 714 715 713 720 719 717 718 713 708 703 698 701 703 706 710
816 816 815 815 814 814 812 808 809 807 804 805 803 803 804 802 804 804 802 802 783 762 767 771 767 765 765 769 771 773 778 775 773 776 775 777 775 775 779 776 774 777 773 775 781 772 767 776 781 779 781 782 784 778 767 770 778 777 778 777 773 773 776 777 779 784 778 769 767 769 778 770 736 717 713 709 715 715 711 711 706 703 702 696 695 699 702 705
814 814 814 814 814 814 813 811 810 808 807 806 803 805 803 802 806 801 805 811 778 749 758 766 765 764 765 771 770 770 775 772 772 776 776 778 777 775 778 773 770 772 771 777 783 770 765 777 780 779 783 781 777 774 768 767 773 778 784 781 777 779 779 779 782 782 777 776 775 765 772 777 741 709 707 707 711 715 710 707 702 698 698 695 692 694 698 701
813 813 812 813 813 813 813 812 811 809 808 806 806 805 802 805 804 798 812 811 766 744 756 760 763 766 766 772 772 770 774 773 773 776 777 778 777 776 778 773 770 771 772 774 774 769 771 780 778 776 778 774 772 779 779 772 773 781 785 780 781 783 781 783 784 781 783 784 775 763 768 772 737 702 706 713 712 712 706 701 699 694 693 693 691 692 695 699
811 811 811 812 811 812 812 810 810 808 808 807 806 805 804 805 801 804 817 795 754 749 760 760 762 762 764 771 771 770 772 773 775 777 777 777 776 776 777 775 774 774 775 776 774 772 776 783 782 776 772 770 777 787 789 784 781 783 782 779 783 784 781 786 782 782 790 778 757 753 757 763 743 706 702 711 706 701 697 696 694 690 690 691 690 689 692 696
808 809 810 810 810 811 810 809 808 807 808 808 806 806 805 802 801 805 799 769 751 757 759 760 762 759 761 763 762 766 770 770 773 776 777 777 778 778 777 777 778 780 781 780 776 771 775 781 778 773 772 773 778 783 787 790 786 783 780 779 781 780 781 786 784 790 794 766 740 740 745 753 744 712 698 698 692 688 687 689 689 687 687 687 686 687 689 694
805 807 807 807 807 808 808 807 806 807 808 807 807 806 803 804 800 790 773 757 756 756 750 755 759 757 759 757 756 762 766 765 767 769 771 775 777 775 774 770 770 778 778 773 771 768 770 770 766 771 776 774 773 777 785 790 787 783 779 780 784 782 781 785 783 784 778 754 739 740 744 744 726 701 694 692 687 685 681 682 684 683 684 683 683 686 688 693
802 803 805 805 805 805 805 805 805 808 807 807 809 803 804 808 787 762 758 757 753 748 745 751 755 756 759 758 758 761 763 762 762 765 765 768 772 770 767 762 760 768 766 762 766 765 764 764 766 771 771 768 767 767 772 777 780 780 773 775 781 780 782 783 774 764 754 743 742 747 748 740 716 694 689 685 682 680 676 679 681 679 680 680 681 686 689 692
799 800 800 800 801 801 802 804 805 806 807 809 809 805 811 804 767 745 751 748 744 746 749 753 756 759 760 758 756 756 760 760 758 763 765 767 772 769 763 760 759 763 764 765 763 761 763 759 756 760 757 757 759 753 752 758 768 771 762 764 768 765 772 773 760 752 747 740 742 752 749 728 707 688 675 672 672 673 675 676 677 677 677 678 681 686 690 692
797 797 796 796 797 797 799 803 804 806 808 808 807 807 806 785 755 747 746 740 742 748 752 756 757 760 760 757 756 752 753 755 754 761 765 763 763 759 753 753 755 758 765 769 761 757 762 749 742 754 754 752 754 750 748 753 763 765 759 764 765 754 755 758 749 748 759 758 745 745 735 704 686 676 665 668 669 668 673 673 674 677 674 677 682 683 686 689
793 793 793 790 789 791 796 800 803 806 808 807 807 802 783 757 744 744 737 733 739 743 752 759 755 758 756 751 756 755 751 754 756 759 759 756 752 746 743 740 744 750 754 758 754 750 755 748 749 762 758 756 761 756 754 754 757 761 762 764 758 749 750 756 755 751 764 767 736 720 716 693 681 674 663 667 670 667 671 671 671 672 670 675 678 677 681 684
788 788 787 782 782 786 792 797 800 805 808 809 804 785 760 743 737 736 733 733 736 735 746 753 746 748 750 745 747 752 754 756 757 758 754 751 744 736 738 736 733 739 740 741 742 740 743 745 753 760 757 762 770 765 761 758 755 759 762 757 750 754 756 758 763 759 761 760 728 705 705 693 687 681 666 668 672 668 668 667 667 669 670 673 673 673 676 678
782 783 779 774 776 782 788 794 796 799 806 810 801 774 752 743 735 733 735 736 736 736 742 744 738 736 738 739 736 741 751 751 752 756 748 742 732 721 729 734 729 731 730 732 739 739 740 745 753 763 763 765 770 766 761 761 761 760 760 756 753 759 759 756 765 765 760 757 730 705 698 686 678 674 669 672 672 666 664 664 665 668 669 671 671 671 672 674
781 781 775 768 772 779 784 789 792 797 802 804 795 772 753 744 736 734 734 733 735 738 739 736 733 732 731 732 730 734 743 741 742 749 741 733 726 714 718 724 725 727 725 731 740 738 740 745 750 766 771 764 765 764 757 757 764 767 763 758 755 754 749 746 751 747 745 748 734 716 701 674 656 653 658 665 664 661 662 662 663 665 664 666 667 668 669 671
778 779 772 766 770 775 779 784 789 796 796 789 780 766 752 745 740 737 734 732 733 735 735 732 732 733 729 727 727 728 735 734 732 736 731 724 719 714 712 714 720 726 725 730 736 736 743 746 745 763 775 763 752 749 743 740 749 760 762 757 754 752 749 748 742 731 732 739 735 731 710 665 639 641 647 654 657 656 658 658 660 661 660 662 663 665 666 667
775 774 769 767 770 773 778 784 786 788 790 783 772 763 756 748 743 740 736 735 734 731 732 733 732 731 728 727 726 723 728 731 728 727 724 718 715 714 711 707 713 724 730 737 738 736 742 744 740 750 758 747 732 726 725 724 725 734 741 740 740 741 746 752 745 729 730 731 723 725 712 664 636 640 643 645 650 650 652 654 656 659 658 659 660 661 662 663
772 770 766 766 770 773 778 783 782 783 785 778 765 758 756 750 746 744 740 738 739 735 734 734 732 730 727 725 723 721 725 728 725 723 718 712 710 708 705 703 707 715 724 731 732 727 731 738 739 736 729 722 720 722 723 723 722 724 725 723 723 726 730 736 735 726 729 730 716 716 709 666 634 639 644 644 647 649 649 649 652 656 656 656 657 657 658 660
770 767 766 765 767 772 778 780 780 783 780 769 759 755 754 751 748 746 743 741 741 739 738 735 731 729 726 724 724 723 723 722 718 716 715 711 707 703 702 704 708 711 714 719 724 725 730 736 738 734 722 711 716 727 730 728 728 727 723 719 717 716 714 714 715 714 719 721 713 713 709 673 639 640 648 647 648 650 650 649 650 652 653 653 654 654 655 656
767 766 767 766 764 768 773 773 774 778 776 770 765 760 754 751 749 747 744 742 739 737 736 732 728 725 723 724 724 722 722 721 715 709 711 711 705 700 700 702 707 711 709 708 713 721 729 732 733 737 736 726 722 724 728 731 731 722 715 714 712 711 711 711 712 716 716 707 698 701 699 670 642 641 646 645 646 650 650 649 649 649 650 651 650 650 651 652
766 765 765 764 762 759 757 756 758 764 769 770 767 760 755 751 747 744 743 742 738 736 735 732 729 725 723 724 724 720 719 720 716 710 709 709 705 703 704 702 702 704 702 700 703 709 717 720 724 732 737 734 725 710 704 714 723 718 711 709 708 709 711 711 714 720 712 693 687 692 684 659 643 643 642 639 643 648 647 647 648 648 647 646 647 648 648 648
765 761 761 764 763 756 749 745 747 751 755 761 761 756 755 751 743 738 741 742 739 737 737 735 734 732 728 727 727 724 720 717 716 714 712 709 706 709 713 709 704 703 705 706 707 709 711 709 709 713 713 711 706 693 684 693 707 713 709 705 704 704 705 709 712 708 693 683 686 685 672 660 657 653 643 637 639 642 641 641 644 644 643 642 643 644 644 644
764 754 752 758 758 755 753 749 747 745 744 749 751 744 743 745 740 736 737 735 733 734 738 737 737 738 735 731 731 729 723 719 717 717 715 711 707 711 719 718 712 711 714 716 715 715 715 709 702 700 697 693 691 686 682 684 691 697 701 701 701 701 703 708 703 687 680 687 687 673 664 664 664 657 648 640 637 638 638 637 637 635 635 637 640 643 643 642
763 751 745 747 745 744 746 744 742 741 740 742 742 735 732 735 737 734 730 728 728 732 737 738 737 737 733 729 728 726 722 721 720 717 714 711 708 711 716 717 717 718 719 720 721 721 721 715 706 702 699 695 692 690 686 683 680 682 688 692 695 698 700 698 687 677 681 686 676 663 661 661 657 653 648 639 633 633 633 632 630 629 628 631 638 642 641 640
761 753 747 745 740 736 735 732 732 735 736 737 736 732 729 728 726 723 720 723 727 727 729 730 728 725 723 721 722 721 719 719 717 712 709 709 709 712 714 713 716 723 722 719 721 722 721 719 714 712 710 705 702 698 693 689 685 682 683 684 688 691 687 681 678 679 681 674 661 658 659 654 650 647 639 632 629 628 627 626 626 626 626 628 634 637 635 634
761 757 753 751 746 741 739 736 735 735 733 734 731 726 724 721 717 714 711 713 720 721 720 720 715 712 713 714 716 715 711 708 705 700 700 705 708 708 708 706 710 722 725 722 722 723 721 717 715 718 719 713 708 703 698 696 693 690 688 687 687 682 674 672 676 678 677 669 660 660 662 656 647 638 630 629 628 627 627 627 625 624 623 624 629 631 629 627
762 760 760 760 753 744 740 738 738 737 734 732 729 723 720 715 711 710 705 700 704 709 710 710 708 704 705 709 711 709 703 699 697 693 692 697 701 700 700 699 704 716 725 724 723 724 723 719 718 723 724 715 706 704 701 697 696 696 695 691 683 674 670 670 670 668 668 667 666 668 667 657 643 633 631 630 627 627 628 627 625 622 619 621 625 626 624 621
762 761 762 764 756 744 738 735 735 733 728 725 724 721 717 712 708 709 707 698 696 698 699 700 702 703 702 703 702 698 694 691 690 689 687 688 692 694 695 695 698 707 717 720 720 722 722 721 720 723 722 711 702 700 698 699 704 700 689 678 670 668 670 667 661 656 655 659 663 663 656 645 636 633 634 630 624 623 625 623 622 618 616 619 622 620 617 616